CW8633 Weather Reports


Display with metric or nautical units.
time (UTC)temp
F
wind
direction
speed
MPH
gust
MPH
rain 1hr
in
rain 24hr
in
rain mn
in
humidity
%
barometer
mb
20260831203625 81 284 3.0 7.0 0.00 0.00 0.00 29 1015.3
20260831202620 80 324 3.0 5.0 0.00 0.00 0.00 30 1015.2
20260831201629 79 256 2.0 4.0 0.00 0.00 0.00 33 1015.5
20260831200621 79 296 3.0 5.0 0.00 0.00 0.00 33 1015.6
20260831195620 79 244 2.0 6.0 0.00 0.00 0.00 33 1015.8
20260831194613 79 326 3.0 5.0 0.00 0.00 0.00 31 1015.8
20260831193623 79 323 3.0 8.0 0.00 0.00 0.00 30 1016.0
20260831192614 79 336 3.0 6.0 0.00 0.00 0.00 31 1016.2
20260831191630 78 326 3.0 6.0 0.00 0.00 0.00 30 1016.4
20260831190620 77 293 3.0 7.0 0.00 0.00 0.00 31 1016.5
20260831185621 77 275 2.0 5.0 0.00 0.00 0.00 33 1016.5
20260831184630 76 286 3.0 6.0 0.00 0.00 0.00 31 1016.6
20260831183624 75 331 3.0 5.0 0.00 0.00 0.00 32 1016.8
20260831182616 74 254 0.0 4.0 0.00 0.00 0.00 34 1017.0
20260831181623 73 245 3.0 7.0 0.00 0.00 0.00 34 1017.2
20260831180639 72 292 2.0 6.0 0.00 0.00 0.00 35 1017.2
20260831175619 71 298 4.0 7.0 0.00 0.00 0.00 35 1017.3
20260831174611 70 328 2.0 6.0 0.00 0.00 0.00 37 1017.4
20260831173621 70 5 3.0 5.0 0.00 0.00 0.00 38 1017.4
20260831172631 69 298 3.0 5.0 0.00 0.00 0.00 40 1017.7
20260831171641 69 10 2.0 4.0 0.00 0.00 0.00 41 1017.7
20260831170613 67 302 1.0 5.0 0.00 0.00 0.00 43 1017.8
20260831165615 66 280 2.0 4.0 0.00 0.00 0.00 42 1017.9
20260831164624 65 298 2.0 4.0 0.00 0.00 0.00 43 1017.8
20260831163613 64 297 2.0 4.0 0.00 0.00 0.00 46 1017.8
20260831162628 63 306 2.0 6.0 0.00 0.00 0.00 48 1017.9
20260831161639 63 319 3.0 6.0 0.00 0.00 0.00 47 1018.0
20260831160628 62 323 2.0 4.0 0.00 0.00 0.00 48 1018.1
20260831155649 61 322 1.0 4.0 0.00 0.00 0.00 50 1018.2
20260831154623 60 243 1.0 3.0 0.00 0.00 0.00 52 1018.4
20260831153634 59 241 1.0 3.0 0.00 0.00 0.00 55 1018.3
20260831152624 57 207 0.0 4.0 0.00 0.00 0.00 55 1018.3
20260831151634 56 207 2.0 4.0 0.00 0.00 0.00 57 1018.4
20260831150621 55 207 3.0 4.0 0.00 0.00 0.00 67 1018.5
20260831145624 54 182 2.0 5.0 0.00 0.00 0.00 69 1018.5
20260831144653 53 92 2.0 2.0 0.00 0.00 0.00 69 1018.4
20260831143642 53 74 1.0 2.0 0.00 0.00 0.00 70 1018.3
20260831142651 52 69 0.0 2.0 0.00 0.00 0.00 72 1018.3
20260831141642 50 69 0.0 2.0 0.00 0.00 0.00 75 1018.3
20260831140616 49 69 1.0 2.0 0.00 0.00 0.00 78 1018.2
20260831135616 47 69 0.0 0.0 0.00 0.00 0.00 78 1018.2
20260831134627 47 69 0.0 2.0 0.00 0.00 0.00 78 1018.0
20260831133618 47 69 1.0 2.0 0.00 0.00 0.00 77 1018.1
20260831132630 48 69 2.0 2.0 0.00 0.00 0.00 75 1018.1
20260831131640 47 69 0.0 2.0 0.00 0.00 0.00 77 1018.1
20260831130628 47 69 0.0 0.0 0.00 0.00 0.00 78 1018.1
20260831125627 47 69 0.0 0.0 0.00 0.00 0.00 76 1018.0
20260831124619 47 69 0.0 1.0 0.00 0.00 0.00 75 1018.0
20260831123626 48 69 0.0 3.0 0.00 0.00 0.00 75 1017.8
20260831122615 48 69 2.0 3.0 0.00 0.00 0.00 76 1017.7
20260831121628 48 69 0.0 0.0 0.00 0.00 0.00 76 1017.8
20260831120624 48 69 0.0 0.0 0.00 0.00 0.00 76 1017.9
20260831115625 48 69 0.0 0.0 0.00 0.00 0.00 75 1017.9
20260831114617 48 69 0.0 2.0 0.00 0.00 0.00 76 1018.0
20260831113630 48 69 0.0 1.0 0.00 0.00 0.00 76 1018.0
20260831112624 48 69 1.0 2.0 0.00 0.00 0.00 76 1018.0
20260831111615 48 69 1.0 2.0 0.00 0.00 0.00 75 1017.9
20260831110627 48 69 0.0 2.0 0.00 0.00 0.00 73 1017.9
20260831105628 49 69 0.0 2.0 0.00 0.00 0.00 72 1017.8
20260831104623 49 69 0.0 2.0 0.00 0.00 0.00 71 1017.7
20260831103633 50 69 0.0 0.0 0.00 0.00 0.00 69 1017.8
20260831102645 50 69 0.0 1.0 0.00 0.00 0.00 68 1017.7
20260831101615 51 69 0.0 3.0 0.00 0.00 0.00 67 1017.7
20260831100631 51 69 3.0 3.0 0.00 0.00 0.00 65 1017.5
20260831095612 51 69 0.0 3.0 0.00 0.00 0.00 67 1017.5
20260831094623 51 69 0.0 2.0 0.00 0.00 0.00 67 1017.5
20260831093613 51 69 1.0 3.0 0.00 0.00 0.00 68 1017.5
20260831092650 52 69 0.0 0.0 0.00 0.00 0.00 68 1017.5
20260831091620 52 69 0.0 1.0 0.00 0.00 0.00 68 1017.5
20260831090631 52 69 1.0 2.0 0.00 0.00 0.00 70 1017.3
20260831085630 51 69 1.0 3.0 0.00 0.00 0.00 70 1017.2
20260831084645 51 69 2.0 3.0 0.00 0.00 0.00 70 1017.3
20260831083615 51 69 0.0 2.0 0.00 0.00 0.00 71 1017.3
20260831082627 51 70 0.0 0.0 0.00 0.00 0.00 70 1017.4
20260831081618 51 70 0.0 2.0 0.00 0.00 0.00 68 1017.4
20260831080613 52 70 1.0 3.0 0.00 0.00 0.00 65 1017.3
20260831075635 53 68 0.0 1.0 0.00 0.00 0.00 63 1017.3
20260831074625 54 68 1.0 2.0 0.00 0.00 0.00 62 1017.2
20260831073636 55 68 0.0 0.0 0.00 0.00 0.00 59 1017.1
20260831072647 56 68 0.0 1.0 0.00 0.00 0.00 55 1017.1
20260831071622 57 68 1.0 2.0 0.00 0.00 0.00 52 1017.1
20260831070613 59 68 1.0 3.0 0.00 0.00 0.00 51 1017.1
20260831065614 59 83 2.0 4.0 0.00 0.01 0.00 49 1017.2
20260831064630 58 86 3.0 6.0 0.00 0.01 0.00 51 1017.1
20260831063621 57 112 2.0 3.0 0.00 0.01 0.00 55 1017.2
20260831062613 57 112 2.0 4.0 0.00 0.01 0.00 56 1017.2
20260831061624 57 137 1.0 3.0 0.00 0.01 0.00 57 1017.2
20260831060620 57 137 2.0 3.0 0.00 0.01 0.00 56 1017.2
20260831055645 57 137 2.0 3.0 0.00 0.01 0.01 55 1017.2
20260831054616 57 137 1.0 3.0 0.00 0.01 0.01 53 1017.2
20260831053627 58 137 0.0 1.0 0.00 0.01 0.01 52 1017.1
20260831052618 57 137 1.0 3.0 0.00 0.01 0.01 53 1017.0
20260831051613 58 137 0.0 2.0 0.00 0.01 0.01 53 1017.0
20260831050623 58 137 1.0 3.0 0.00 0.01 0.01 51 1016.9
20260831045624 58 137 0.0 2.0 0.00 0.01 0.01 50 1016.7
20260831044619 59 137 2.0 7.0 0.00 0.01 0.01 49 1016.6
20260831043650 62 134 2.0 5.0 0.00 0.01 0.01 43 1016.5
20260831042621 64 360 3.0 4.0 0.00 0.01 0.01 41 1016.2
20260831041630 64 67 2.0 4.0 0.00 0.01 0.01 37 1016.2
20260831040613 65 62 1.0 4.0 0.00 0.01 0.01 36 1016.2
20260831035617 65 67 2.0 6.0 0.00 0.01 0.01 35 1016.1
20260831034627 66 65 3.0 5.0 0.00 0.01 0.01 34 1016.0
20260831033617 66 66 4.0 6.0 0.00 0.01 0.01 34 1015.9
20260831032628 66 71 3.0 6.0 0.00 0.01 0.01 34 1015.8
20260831031620 66 70 3.0 5.0 0.00 0.01 0.01 34 1015.7
20260831030630 67 67 4.0 8.0 0.00 0.01 0.01 32 1015.5
20260831025630 68 82 4.0 6.0 0.00 0.01 0.01 30 1015.4
20260831024623 69 70 4.0 8.0 0.00 0.01 0.01 30 1015.3
20260831023613 70 67 4.0 5.0 0.00 0.01 0.01 28 1015.2
20260831022624 71 57 2.0 6.0 0.00 0.01 0.01 26 1015.1
20260831021631 71 15 3.0 5.0 0.00 0.01 0.01 27 1015.1
20260831020626 72 29 2.0 6.0 0.00 0.01 0.01 27 1015.0
20260831015626 73 13 3.0 10.0 0.00 0.01 0.01 28 1014.9
20260831014637 74 11 3.0 8.0 0.00 0.01 0.01 27 1014.8
20260831013626 76 15 4.0 10.0 0.00 0.01 0.01 27 1014.9
20260831012622 77 29 3.0 6.0 0.00 0.01 0.01 28 1014.8
20260831011629 78 14 3.0 5.0 0.00 0.01 0.01 29 1014.8
20260831010620 78 15 4.0 8.0 0.00 0.01 0.01 29 1014.8
20260831005621 79 340 4.0 9.0 0.00 0.01 0.01 29 1014.9
20260831004615 79 360 4.0 12.0 0.00 0.01 0.01 28 1014.9
20260831003625 79 350 4.0 6.0 0.00 0.01 0.01 32 1014.8
20260831002616 79 350 3.0 5.0 0.00 0.01 0.01 37 1014.9
20260831001647 78 346 2.0 4.0 0.00 0.01 0.01 37 1015.0
20260831000617 78 342 2.0 5.0 0.00 0.01 0.01 40 1015.1
20260830235623 78 52 2.0 5.0 0.00 0.01 0.01 39 1015.1
20260830234613 77 355 1.0 3.0 0.00 0.01 0.01 41 1015.0
20260830233624 77 351 1.0 4.0 0.00 0.01 0.01 44 1015.0
20260830232635 77 346 3.0 4.0 0.00 0.01 0.01 42 1015.0
20260830231628 77 342 2.0 4.0 0.00 0.01 0.01 39 1015.1
20260830230618 78 355 3.0 6.0 0.00 0.01 0.01 40 1015.0
20260830225619 78 330 4.0 8.0 0.00 0.01 0.01 40 1015.1
20260830224615 78 244 1.0 6.0 0.00 0.01 0.01 39 1015.1
20260830223645 78 162 1.0 2.0 0.00 0.01 0.01 39 1015.1
20260830222615 78 161 1.0 9.0 0.00 0.01 0.01 37 1015.1
20260830221646 78 211 1.0 8.0 0.00 0.01 0.01 38 1015.3
20260830220615 77 204 5.0 9.0 0.00 0.01 0.01 41 1015.4
20260830215621 77 168 6.0 12.0 0.00 0.01 0.01 42 1015.4
20260830214632 77 198 5.0 10.0 0.00 0.01 0.01 42 1015.6
20260830213623 76 184 9.0 15.0 0.00 0.01 0.01 45 1015.7
20260830212634 76 217 2.0 7.0 0.00 0.01 0.01 48 1015.8
20260830211626 76 222 5.0 7.0 0.00 0.01 0.01 49 1015.9
20260830210638 75 209 3.0 6.0 0.00 0.01 0.01 49 1016.0
20260830205619 75 262 3.0 7.0 0.00 0.01 0.01 49 1016.0
20260830204630 75 272 2.0 6.0 0.00 0.01 0.01 48 1016.0